[[{"header":{"parameterUnit":"m.s-1","parameterCategory":1,"la1":30.2991,"la2":30.254,"lo1":-89.0895,"lo2":-89.0444,"dy":0.0017,"dx":0.0017,"nx":28,"ny":28,"refTime":"2024-04-18T09:00:00:Z","depth":0,"parameterNumber":2,"parameterNumberName":"U-component_of_WINDS"},"data":[0,0,0,0,0,0,0,0,0,0,0,0,0,0,0,0,0,0,0,0,0,0,0,0,0,0,0,0,0,0,0,0,0,0,0,0,0,0,0,0,0,0,0,0,0,0,0,0,0,0,0,0,0,0,0,0,0,0,1.3081,1.3082,0,1.3214,1.3215,1.3217,1.3252,1.3252,1.3251,1.325,1.3385,1.339,1.3394,0,0,0,0,0,0,0,0,0,0,0,0,0,1.2857,1.2861,1.3081,1.3082,1.3084,1.3213,1.3215,1.3217,1.3252,1.3251,1.3251,1.325,1.3384,1.3389,1.3394,0,0,0,0,0,0,0,0,0,0,0,0,0,1.2968,1.2862,1.308,1.3117,1.3122,1.3213,1.3215,1.3218,1.3253,1.3251,1.325,1.3249,1.3382,1.3388,1.3395,1.3459,0,0,1.3415,1.3418,0,0,0,0,0,0,0,0,1.2962,1.2976,1.311,1.3115,1.312,1.3215,1.3186,1.3298,1.3253,1.3203,1.325,1.3249,1.333,1.334,1.3368,1.3465,1.3471,1.3415,1.3419,1.3422,1.3424,0,0,0,0,0,0,0,1.2954,1.2971,1.3133,1.3112,1.3118,1.3127,1.3141,1.3207,1.3271,1.3207,1.321,1.3225,1.3332,1.3362,1.3371,1.3473,1.3415,1.3421,1.3425,1.3428,1.3629,1.363,0,0,0,0,0,0,1.294,1.2964,1.3129,1.3137,1.3037,1.3132,1.3148,1.3186,1.3271,1.3282,1.3226,1.3227,1.3351,1.3364,1.3376,1.3456,1.3422,1.3428,1.3432,1.3627,1.3629,1.3631,0,0,0,0,0,0,1.2935,1.2955,1.3124,1.3052,1.3074,1.3137,1.3179,1.3189,1.3219,1.3285,1.3297,1.3245,1.3351,1.3367,1.3438,1.3461,1.3431,1.3437,1.3626,1.3628,1.363,1.3617,0,0,0,0,0,0,1.2929,1.2953,1.2978,1.3052,1.3078,1.3183,1.3181,1.3193,1.323,1.3231,1.3305,1.3316,1.3351,1.3428,1.3444,1.347,1.3442,1.3624,1.3627,1.3629,1.3615,1.3618,1.3621,0,0,0,0,0,1.292,1.2968,1.2979,1.2998,1.311,1.3185,1.3199,1.3238,1.3232,1.3257,1.33,1.3314,1.3456,1.3435,1.3454,1.3481,1.3622,1.3626,1.3629,1.3614,1.3618,1.3621,0,0,0,0,0,0,1.2895,1.2979,1.2991,1.3065,1.3117,1.3191,1.3224,1.3241,1.3296,1.3295,1.3341,1.3357,1.3425,1.3461,1.3435,1.3548,1.354,1.3547,1.3522,1.3526,1.3528,1.3518,1.3447,0,0,0,0,0,1.2898,1.2952,1.3022,1.308,1.3106,1.316,1.3194,1.322,1.3276,1.3298,1.3346,1.34,1.3457,1.3493,1.3549,1.3621,1.3637,1.3649,1.3652,1.3654,1.3659,1.3699,1.3705,1.3641,1.3641,1.3641,0,0,1.2904,1.2957,1.2988,1.3076,1.312,1.3174,1.3179,1.3236,1.3277,1.3307,1.3377,1.3414,1.3477,1.3548,1.3582,1.358,1.368,1.3658,1.3659,1.3663,1.3703,1.3709,1.3714,1.3643,1.3643,1.3643,0,0,1.2944,1.2989,1.3043,1.3087,1.3153,1.3189,1.3201,1.3273,1.3298,1.3369,1.3393,1.3442,1.3539,1.3583,1.3618,1.3674,1.3689,1.3691,1.3705,1.3743,1.3748,1.3753,1.3773,1.3779,1.3696,1.3696,1.3696,0,1.2944,1.3027,1.3068,1.3124,1.3162,1.3192,1.3246,1.3287,1.3368,1.3393,1.339,1.3512,1.3557,1.3638,1.3652,1.368,1.3695,1.3683,1.3744,1.3749,1.3754,1.3774,1.3781,1.3696,1.3696,1.3696,1.3696,0,1.3023,1.308,1.3115,1.3193,1.3235,1.329,1.3339,1.3376,1.3398,1.3434,1.3506,1.3561,1.3628,1.3649,1.3671,1.3734,1.3731,1.3735,1.3728,1.3759,1.3778,1.3786,1.3696,1.3696,1.3696,1.3696,0,0,1.305,1.315,1.3162,1.3198,1.3273,1.3318,1.3374,1.344,1.3471,1.3526,1.3574,1.3656,1.366,1.37,1.3727,1.3761,1.3801,1.3761,1.3763,1.3766,1.3874,1.387,1.3878,1.3812,1.3814,1.3815,1.3869,0,1.3099,1.32,1.3239,1.3322,1.3375,1.3405,1.3453,1.3505,1.354,1.359,1.3629,1.3686,1.3688,1.3712,1.3747,1.3789,1.3824,1.3786,1.3857,1.3859,1.3839,1.3888,1.3884,1.3932,1.3876,1.3878,1.3879,0,1.3169,1.3225,1.3313,1.3382,1.3406,1.3449,1.3513,1.3561,1.3619,1.3643,1.3687,1.3712,1.3771,1.3761,1.3843,1.3816,1.3848,1.3873,1.3876,1.3884,1.387,1.3897,1.3948,1.3955,1.3891,1.389,1.3889,0,1.3179,1.3277,1.3342,1.3372,1.3454,1.3484,1.3519,1.3577,1.3614,1.367,1.3694,1.3756,1.379,1.3837,1.3878,1.3866,1.3956,1.3949,1.3977,1.3976,1.3994,1.3992,1.4051,1.4015,1.4015,1.4014,1.4014,0,1.323,1.3282,1.3348,1.3388,1.3448,1.3492,1.355,1.3587,1.3638,1.3686,1.3715,1.3759,1.381,1.3861,1.3893,1.3956,1.3972,1.3992,1.4,1.3989,1.3986,1.401,1.4007,1.4016,1.4016,1.4016,1.4015,0,1.3251,1.3297,1.337,1.3442,1.3461,1.3502,1.3564,1.3604,1.364,1.37,1.3717,1.3774,1.3835,1.3881,1.396,1.3981,1.4049,1.4057,1.4029,1.4033,1.4058,1.4055,1.4134,1.4146,1.4101,1.4102,1.4102,0,1.328,1.3321,1.3397,1.3432,1.3467,1.3522,1.356,1.3605,1.3643,1.3713,1.3745,1.3808,1.3861,1.3957,1.4006,1.4066,1.4076,1.4099,1.4085,1.4073,1.4076,1.4073,1.4077,1.4101,1.4101,1.4101,1.4102,0,1.3325,1.3346,1.3401,1.3463,1.3508,1.3559,1.3611,1.3637,1.3691,1.3733,1.3796,1.3837,1.3918,1.398,1.4045,1.4082,1.4101,1.4106,1.4115,1.4105,1.4086,1.4096,1.4034,1.4104,1.4104,1.4103,1.4103,1.4103,1.3351,1.3389,1.3449,1.3508,1.3552,1.36,1.3641,1.3683,1.3736,1.3806,1.3829,1.3894,1.3951,1.4041,1.4078,1.4129,1.4129,1.4143,1.4147,1.4149,1.4148,1.4079,1.4141,1.4141,1.4141,1.4141,1.4141,0,1.3398,1.3438,1.3493,1.3564,1.3611,1.3625,1.3683,1.3721,1.3778,1.383,1.3882,1.3954,1.4015,1.4068,1.4131,1.4161,1.4172,1.4176,1.4174,1.4182,1.4145,1.413,1.4167,1.4167,1.4167,1.4167,1.4167,1.4167,1.3428,1.3493,1.3521,1.3608,1.3648,1.3712,1.3743,1.3787,1.383,1.3909,1.3959,1.3994,1.4047,1.4114,1.417,1.4184,1.4205,1.4208,1.4224,1.4188,1.4185,1.4182,1.4168,1.4212,1.4212,1.4257,1.4257,1.4258]},{"header":{"parameterUnit":"m.s-1","parameterCategory":1,"la1":30.2991,"la2":30.254,"lo1":-89.0895,"lo2":-89.0444,"dy":0.0017,"dx":0.0017,"nx":28,"ny":28,"refTime":"2024-04-18T09:00:00:Z","depth":0,"parameterNumber":3,"parameterNumberName":"V-component_of_WINDS"},"data":[0,0,0,0,0,0,0,0,0,0,0,0,0,0,0,0,0,0,0,0,0,0,0,0,0,0,0,0,0,0,0,0,0,0,0,0,0,0,0,0,0,0,0,0,0,0,0,0,0,0,0,0,0,0,0,0,0,0,3.2206,3.2206,0,3.2275,3.2276,3.2276,3.2245,3.2243,3.2241,3.2239,3.2306,3.2309,3.2313,0,0,0,0,0,0,0,0,0,0,0,0,0,3.2041,3.2044,3.2206,3.2206,3.2207,3.2275,3.2276,3.2277,3.2245,3.2243,3.2241,3.2239,3.2305,3.2309,3.2313,0,0,0,0,0,0,0,0,0,0,0,0,0,3.2112,3.2045,3.2205,3.22,3.22,3.2275,3.2276,3.2277,3.2245,3.2243,3.224,3.2238,3.2303,3.2308,3.2313,3.2396,0,0,3.2329,3.2331,0,0,0,0,0,0,0,0,3.2108,3.2118,3.22,3.22,3.2201,3.2249,3.2242,3.2317,3.2246,3.2228,3.2239,3.2236,3.2289,3.2295,3.2313,3.2399,3.2402,3.2329,3.2332,3.2335,3.2336,0,0,0,0,0,0,0,3.2103,3.2114,3.2233,3.2201,3.2201,3.2192,3.2199,3.2256,3.2272,3.2229,3.2227,3.2236,3.2288,3.2308,3.2315,3.2403,3.2329,3.2334,3.2337,3.2339,3.2561,3.2563,0,0,0,0,0,0,3.2099,3.2111,3.2231,3.2235,3.2147,3.2197,3.2205,3.2236,3.2271,3.2274,3.2238,3.2234,3.2301,3.2309,3.2317,3.2417,3.2334,3.2339,3.2342,3.2558,3.2561,3.2564,0,0,0,0,0,0,3.2095,3.211,3.2228,3.2172,3.2187,3.2203,3.2237,3.2238,3.2259,3.2278,3.228,3.2256,3.2299,3.231,3.2377,3.2418,3.2342,3.2346,3.2554,3.2559,3.2563,3.2617,0,0,0,0,0,0,3.2091,3.2109,3.2142,3.2173,3.219,3.2289,3.224,3.2242,3.2268,3.2264,3.2295,3.2298,3.2298,3.237,3.2382,3.2424,3.235,3.2551,3.2556,3.2561,3.2611,3.2622,3.2632,0,0,0,0,0,3.2085,3.2153,3.2143,3.2158,3.2231,3.2291,3.23,3.23,3.2271,3.2304,3.2316,3.2297,3.2412,3.2377,3.2391,3.2435,3.2548,3.2555,3.2561,3.2607,3.262,3.2632,0,0,0,0,0,0,3.2124,3.2157,3.2147,3.2227,3.2257,3.2286,3.2327,3.2314,3.2351,3.2346,3.2342,3.235,3.242,3.2434,3.2394,3.2517,3.2475,3.2485,3.2505,3.2518,3.2528,3.2524,3.2354,0,0,0,0,0,3.2142,3.219,3.2215,3.2284,3.2299,3.2311,3.2336,3.2334,3.2364,3.2376,3.2393,3.2421,3.2463,3.2491,3.2531,3.2613,3.2619,3.265,3.266,3.2668,3.2677,3.2721,3.2735,3.2585,3.2585,3.2585,0,0,3.218,3.2204,3.2234,3.2292,3.2315,3.2363,3.2321,3.2373,3.2408,3.2383,3.2449,3.2462,3.2493,3.2568,3.2602,3.2582,3.2719,3.2676,3.2683,3.2687,3.2729,3.2743,3.2755,3.259,3.2589,3.2588,0,0,3.2274,3.2297,3.2357,3.238,3.2416,3.2423,3.2437,3.2468,3.2476,3.2542,3.2524,3.2564,3.2638,3.2661,3.2682,3.2784,3.2768,3.2797,3.2851,3.2894,3.2905,3.2916,3.2953,3.2966,3.2805,3.2805,3.2805,0,3.2316,3.2389,3.2388,3.2443,3.2469,3.2449,3.2509,3.2531,3.2577,3.2595,3.2572,3.2664,3.2683,3.2763,3.2788,3.2806,3.2822,3.2794,3.2904,3.2914,3.2924,3.2959,3.2973,3.2809,3.2808,3.2808,3.2808,0,3.2439,3.249,3.2534,3.2581,3.2611,3.2668,3.2675,3.2705,3.27,3.2709,3.2776,3.2798,3.2843,3.2861,3.2856,3.2941,3.2927,3.2904,3.2863,3.2942,3.2975,3.2988,3.2813,3.2812,3.2811,3.281,0,0,3.256,3.2606,3.2622,3.2644,3.2681,3.2719,3.2774,3.2819,3.2846,3.2877,3.2923,3.2985,3.2964,3.2989,3.2985,3.3023,3.3103,3.2995,3.2996,3.3015,3.3198,3.3216,3.3231,3.3092,3.3094,3.3096,3.3195,0,3.2657,3.2756,3.2757,3.2848,3.2894,3.2876,3.2924,3.2951,3.296,3.3,3.3009,3.3054,3.3023,3.3037,3.3074,3.3085,3.3139,3.3078,3.3134,3.3136,3.3128,3.3249,3.3268,3.336,3.3208,3.321,3.3212,0,3.2784,3.2822,3.2918,3.2948,3.2968,3.3011,3.3052,3.3091,3.3121,3.3125,3.3152,3.3143,3.3197,3.3154,3.3229,3.3187,3.3209,3.3218,3.3222,3.3228,3.3179,3.3258,3.339,3.3404,3.3232,3.323,3.3229,0,3.2864,3.2938,3.3005,3.3024,3.3061,3.3092,3.3108,3.3136,3.3163,3.3198,3.3215,3.3256,3.3278,3.3309,3.331,3.3278,3.3386,3.3342,3.3391,3.3391,3.3415,3.3414,3.3553,3.3428,3.3428,3.3428,3.3427,0,3.2972,3.3032,3.3042,3.3083,3.3149,3.3148,3.3213,3.3226,3.3251,3.3293,3.3278,3.3318,3.3318,3.3358,3.3359,3.3421,3.343,3.3435,3.3435,3.3437,3.3437,3.3452,3.3446,3.3431,3.343,3.343,3.3429,0,3.3073,3.3082,3.3154,3.3184,3.3193,3.324,3.3264,3.3303,3.3311,3.3365,3.3377,3.3389,3.3436,3.344,3.3494,3.3494,3.357,3.3562,3.356,3.3559,3.3608,3.3604,3.3763,3.3784,3.3644,3.3646,3.3647,0,3.3143,3.3188,3.3223,3.3252,3.327,3.3316,3.3344,3.3344,3.3374,3.3411,3.3445,3.349,3.3527,3.3602,3.3614,3.3655,3.3648,3.3701,3.3654,3.3655,3.365,3.3648,3.3652,3.3711,3.3712,3.3714,3.3715,0,3.3265,3.3268,3.3309,3.3353,3.3387,3.3421,3.3452,3.3475,3.348,3.3513,3.3561,3.359,3.3645,3.369,3.373,3.3745,3.3731,3.3729,3.3743,3.3746,3.3744,3.3746,3.3586,3.3726,3.3725,3.3724,3.3723,3.3723,3.3353,3.3393,3.3424,3.3471,3.3495,3.3525,3.3563,3.3576,3.3617,3.3663,3.366,3.3713,3.3741,3.3793,3.3812,3.3852,3.3834,3.3854,3.3859,3.3864,3.3869,3.3736,3.3859,3.3859,3.3858,3.3858,3.3858,0,3.3476,3.3495,3.3538,3.3583,3.362,3.3604,3.3638,3.3669,3.3717,3.3745,3.3781,3.3837,3.388,3.3896,3.3938,3.3968,3.3962,3.3979,3.3977,3.3981,3.3882,3.3867,3.3983,3.3983,3.3982,3.3982,3.3982,3.3982,3.3544,3.3611,3.3617,3.3695,3.3713,3.3766,3.3787,3.3814,3.3836,3.3899,3.3936,3.3947,3.3969,3.4013,3.4052,3.4055,3.4072,3.4091,3.4092,3.4,3.3988,3.3976,3.3961,3.4095,3.4095,3.4187,3.4188,3.4189]}]]